VIASAT-2

Last updated on Thu Nov 21 2024 00:02:43 GMT+0000 (Coordinated Universal Time)

1 42740U 17029A 24324.49520795 -.00000263 00000+0 00000+0 0 9992 2 42740 0.0121 285.0898 0000284 351.5277 250.7929 1.00271537 27433
UTC large
Height (km)
Speed (km/s)
/
Latitude / Longitude
Inclination (degrees)
Orbital Period (minutes)
Azimuth
Elevation
Range (km)
Doppler Factor

Next 0 passes for location: London (51.5072 / 0.1276)

Sorry there are no passes over London.